Change the Weather History Date:

Monday, March 10, 2014

  Actual Average (KWAL) Record (KWAL)
Temperature  
Mean Temperature 48 °F 43 °F  
Max Temperature 62 °F 52 °F 76 °F (2006)
Min Temperature 33 °F 35 °F 17 °F (1996)
Degree Days  
Heating Degree Days 18    
Month to date heating degree days  
Since 1 July heating degree days  
Cooling Degree Days 0    
Month to date cooling degree days  
Year to date cooling degree days  
Moisture  
Dew Point 33 °F    
Average Humidity 59    
Maximum Humidity 93    
Minimum Humidity 26    
Precipitation  
Precipitation 0.00 in 0.13 in 0.66 in (2011)
Month to date precipitation 1.24  
Year to date precipitation 7.04  
Sea Level Pressure  
Sea Level Pressure 29.88 in    
Wind  
Wind Speed 4 mph (SW)    
Max Wind Speed 10 mph    
Max Gust Speed -    
Visibility 9 miles    
Events Rain    
T = Trace of Precipitation, MM = Missing Value Source: NWS Daily Summary

Daily Weather History Graph

Daily Weather History Graph

Search for Another Location

Airport or City:

Trip Planner

Search our weather history database for the weather conditions in past years. The results will help you decide how hot, cold, wet, or windy it might be!

Date:

Astronomy

Mar. 10, 2014 Rise Set
Actual Time 7:21 AM EDT 7:05 PM EDT
Civil Twilight 6:55 AM EDT 7:31 PM EDT
Nautical Twilight 6:25 AM EDT 8:02 PM EDT
Astronomical Twilight 5:54 AM EDT 8:32 PM EDT
Moon 1:51 PM EDT (3/10) 3:27 AM EDT (3/10)
Length of Visible Light 12h 36m
Length of Day
11h 43m
Waxing Gibbous, 70% of the Moon is Illuminated
Mar 10
Waxing Gibbous
Mar 16
Full
Mar 23
Last Quarter
Mar 30
New
Apr 7
First Quarter

Hourly Weather History & Observations

Time (EDT) Temp. Windchill Dew Point Humidity Pressure Visibility Wind Dir Wind Speed Gust Speed Precip Events Conditions
12:17 AM 37.4 °F - 33.8 °F 87% 30.04 in 7.0 mi Calm Calm - N/A   Clear
12:36 AM 37.4 °F - 33.8 °F 87% 30.05 in 7.0 mi Calm Calm - N/A   Clear
12:56 AM 37.4 °F - 33.8 °F 87% 30.04 in 7.0 mi Calm Calm - N/A   Clear
1:16 AM 35.6 °F - 33.8 °F 93% 30.03 in 5.0 mi Calm Calm - N/A   Clear
1:36 AM 35.6 °F - 33.8 °F 93% 30.03 in 5.0 mi Calm Calm - N/A   Clear
1:56 AM 35.6 °F - 33.8 °F 93% 30.02 in 7.0 mi Calm Calm - N/A   Clear
2:16 AM 35.6 °F 32.8 °F 33.8 °F 93% 30.02 in 7.0 mi SSW 3.5 mph - N/A   Clear
2:36 AM 35.6 °F 32.8 °F 33.8 °F 93% 30.01 in 7.0 mi SSW 3.5 mph - N/A   Clear
2:58 AM 37.4 °F - 33.8 °F 87% 30.01 in 7.0 mi Calm Calm - N/A   Clear
3:16 AM 35.6 °F 32.8 °F 33.8 °F 93% 29.99 in 7.0 mi SSW 3.5 mph - N/A   Clear
3:36 AM 37.4 °F 34.9 °F 33.8 °F 87% 29.99 in 10.0 mi SSW 3.5 mph - N/A   Clear
3:56 AM 39.2 °F 37.0 °F 33.8 °F 81% 29.98 in 10.0 mi SSW 3.5 mph - N/A   Clear
4:16 AM 39.2 °F 35.0 °F 33.8 °F 81% 29.96 in 10.0 mi SSW 5.8 mph - N/A   Clear
4:36 AM 39.2 °F 37.0 °F 32.0 °F 75% 29.96 in 10.0 mi SSW 3.5 mph - N/A   Clear
4:56 AM 37.4 °F 33.8 °F 32.0 °F 81% 29.96 in 10.0 mi SSW 4.6 mph - N/A   Clear
5:16 AM 37.4 °F 32.8 °F 32.0 °F 81% 29.95 in 10.0 mi SSW 5.8 mph - N/A   Clear
5:36 AM 37.4 °F 33.8 °F 30.2 °F 75% 29.95 in 10.0 mi SSW 4.6 mph - N/A   Clear
5:56 AM 39.2 °F 37.0 °F 32.0 °F 75% 29.95 in 10.0 mi SSW 3.5 mph - N/A   Clear
6:18 AM 35.6 °F - 30.2 °F 81% 29.95 in 10.0 mi Calm Calm - N/A   Clear
6:36 AM 35.6 °F - 30.2 °F 81% 29.95 in 10.0 mi Calm Calm - N/A   Clear
6:56 AM 35.6 °F - 30.2 °F 81% 29.95 in 7.0 mi Calm Calm - N/A   Clear
7:16 AM 33.8 °F - 30.2 °F 87% 29.94 in 10.0 mi Calm Calm - N/A   Clear
7:36 AM 35.6 °F - 30.2 °F 81% 29.94 in 10.0 mi Calm Calm - N/A   Clear
7:56 AM 35.6 °F 31.7 °F 32.0 °F 87% 29.95 in 7.0 mi SW 4.6 mph - N/A   Clear
8:16 AM 39.2 °F 35.0 °F 33.8 °F 81% 29.94 in 10.0 mi SW 5.8 mph - N/A   Clear
8:36 AM 44.6 °F 42.2 °F 35.6 °F 71% 29.95 in 10.0 mi SW 4.6 mph - N/A   Clear
8:56 AM 46.4 °F 43.5 °F 33.8 °F 62% 29.94 in 10.0 mi SW 5.8 mph - N/A   Clear
9:16 AM 48.2 °F - 33.8 °F 58% 29.94 in 10.0 mi SSW 5.8 mph - N/A   Clear
9:36 AM 48.2 °F - 33.8 °F 58% 29.93 in 10.0 mi SW 6.9 mph - N/A   Clear
9:56 AM 48.2 °F - 35.6 °F 62% 29.93 in 10.0 mi SW 4.6 mph - N/A   Clear
10:16 AM 48.2 °F - 35.6 °F 62% 29.93 in 10.0 mi SW 3.5 mph - N/A   Clear
10:36 AM 51.8 °F - 37.4 °F 58% 29.93 in 10.0 mi WSW 5.8 mph - N/A   Clear
10:56 AM 53.6 °F - 35.6 °F 51% 29.91 in 10.0 mi West 4.6 mph - N/A   Clear
11:16 AM 55.4 °F - 32.0 °F 41% 29.91 in 10.0 mi WSW 10.4 mph - N/A   Clear
11:36 AM 55.4 °F - 33.8 °F 44% 29.91 in 10.0 mi WSW 9.2 mph - N/A   Clear
11:56 AM 55.4 °F - 33.8 °F 44% 29.90 in 10.0 mi WSW 8.1 mph - N/A   Clear
12:16 PM 57.2 °F - 33.8 °F 41% 29.89 in 10.0 mi West 8.1 mph - N/A   Clear
12:36 PM 57.2 °F - 33.8 °F 41% 29.88 in 10.0 mi West 8.1 mph - N/A   Clear
12:56 PM 57.2 °F - 33.8 °F 41% 29.87 in 10.0 mi West 5.8 mph - N/A   Clear
1:16 PM 57.2 °F - 32.0 °F 38% 29.88 in 10.0 mi West 9.2 mph - N/A   Clear
1:36 PM 57.2 °F - 32.0 °F 38% 29.87 in 10.0 mi WNW 6.9 mph - N/A   Clear
1:56 PM 57.2 °F - 33.8 °F 41% 29.86 in 10.0 mi West 5.8 mph - N/A   Clear
2:16 PM 59.0 °F - 30.2 °F 34% 29.84 in 10.0 mi West 4.6 mph - N/A   Clear
2:36 PM 59.0 °F - 33.8 °F 39% 29.83 in 10.0 mi WSW 4.6 mph - N/A   Clear
2:56 PM 60.8 °F - 33.8 °F 36% 29.83 in 10.0 mi West 5.8 mph - N/A   Clear
3:16 PM 60.8 °F - 30.2 °F 31% 29.83 in 10.0 mi WNW 5.8 mph - N/A   Clear
3:36 PM 60.8 °F - 33.8 °F 36% 29.81 in 10.0 mi SW 6.9 mph - N/A Rain Light Rain
3:56 PM 60.8 °F - 33.8 °F 36% 29.81 in 10.0 mi SW 3.5 mph - N/A   Clear
4:16 PM 62.6 °F - 32.0 °F 32% 29.79 in 10.0 mi SW 4.6 mph - N/A   Clear
4:38 PM 62.6 °F - 30.2 °F 30% 29.79 in 10.0 mi WSW 8.1 mph - N/A   Clear
4:56 PM 62.6 °F - 28.4 °F 27% 29.79 in 10.0 mi WSW 5.8 mph - N/A   Clear
5:16 PM 62.6 °F - 28.4 °F 27% 29.79 in 10.0 mi West 3.5 mph - N/A   Clear
5:36 PM 62.6 °F - 26.6 °F 26% 29.79 in 10.0 mi West 5.8 mph - N/A   Clear
5:56 PM 62.6 °F - 28.4 °F 27% 29.78 in 10.0 mi West 5.8 mph - N/A   Clear
6:16 PM 60.8 °F - 28.4 °F 29% 29.77 in 10.0 mi SW 3.5 mph - N/A   Clear
6:37 PM 60.8 °F - 30.2 °F 31% 29.76 in 10.0 mi SSW 3.5 mph - N/A   Clear
6:56 PM 57.2 °F - 33.8 °F 41% 29.76 in 10.0 mi SSW 3.5 mph - N/A   Clear
7:16 PM 55.4 °F - 32.0 °F 41% 29.76 in 10.0 mi South 6.9 mph - N/A   Clear
7:36 PM 55.4 °F - 33.8 °F 44% 29.76 in 10.0 mi SSE 8.1 mph - N/A   Clear
7:56 PM 53.6 °F - 37.4 °F 54% 29.76 in 10.0 mi South 5.8 mph - N/A   Clear
8:16 PM 53.6 °F - 37.4 °F 54% 29.76 in 10.0 mi South 8.1 mph - N/A   Clear
8:36 PM 53.6 °F - 37.4 °F 54% 29.76 in 10.0 mi South 9.2 mph - N/A   Clear
8:56 PM 53.6 °F - 37.4 °F 54% 29.76 in 10.0 mi South 8.1 mph - N/A   Clear
9:16 PM 53.6 °F - 37.4 °F 54% 29.76 in 10.0 mi South 8.1 mph - N/A   Clear
9:36 PM 53.6 °F - 37.4 °F 54% 29.76 in 10.0 mi South 6.9 mph - N/A   Clear
9:56 PM 53.6 °F - 35.6 °F 51% 29.76 in 10.0 mi South 6.9 mph - N/A   Clear
10:16 PM 53.6 °F - 35.6 °F 51% 29.75 in 10.0 mi South 8.1 mph - N/A   Clear
10:36 PM 53.6 °F - 33.8 °F 47% 29.74 in 10.0 mi South 10.4 mph - N/A   Clear
10:56 PM 53.6 °F - 33.8 °F 47% 29.74 in 10.0 mi South 8.1 mph - N/A   Clear
11:16 PM 53.6 °F - 35.6 °F 51% 29.74 in 10.0 mi South 8.1 mph - N/A   Clear
11:36 PM 53.6 °F - 35.6 °F 51% 29.73 in 10.0 mi South 8.1 mph - N/A   Clear
11:56 PM 53.6 °F - 37.4 °F 54% 29.72 in 10.0 mi South 8.1 mph - N/A   Clear